Probability
0 0 0 0 0 0 0 0 0 0 0 0 0 0 0 0 0 1 6 14 21 24 23 20 15 11 9 8 7 7 6 6 7 7 6 6 8 9 10 11 14 19 23
0 0 0 0 0 0 0 0 0 0 0 0 0 0 0 0 0 0 4 11 18 23 23 19 15 11 8 7 8 8 8 8 8 9 9 10 12 12 11 12 14 18 22
0 0 0 0 0 0 0 0 0 0 0 0 0 0 0 0 0 0 1 5 9 12 14 13 11 9 6 6 7 7 7 7 6 7 9 11 12 12 10 11 11 14 17
4 3 2 1 0 0 0 0 0 0 0 0 0 0 0 0 0 0 0 1 1 2 3 5 5 5 4 4 4 4 4 4 3 3 4 6 7 7 7 7 7 7 10
14 11 5 2 0 0 0 0 0 0 0 0 0 0 0 0 0 0 0 0 0 0 0 1 1 1 1 1 1 2 3 3 2 1 1 2 3 4 4 4 4 3 4
22 17 10 4 1 0 0 0 0 0 0 0 0 0 0 0 0 0 0 0 0 0 0 0 0 0 0 0 0 0 1 1 1 0 1 2 2 2 3 3 2 2 3
22 18 12 6 2 0 0 0 0 0 0 0 0 0 0 0 0 0 0 0 0 0 0 0 0 0 0 0 0 0 0 0 0 0 0 1 1 1 1 1 1 1 2
17 15 11 5 1 0 0 0 0 0 0 0 0 0 0 0 0 0 0 0 0 0 0 0 0 0 0 0 0 0 0 0 0 0 0 0 0 0 0 0 0 0 1
11 10 6 3 1 0 0 0 0 0 0 0 0 0 0 0 0 0 0 0 0 0 0 0 0 0 0 0 0 0 0 0 0 0 0 0 0 0 0 0 0 0 0
6 4 2 1 0 0 0 0 0 0 0 0 0 0 0 0 0 0 0 0 0 0 0 0 0 0 0 0 0 0 0 0 0 0 0 0 0 0 0 0 0 0 0
1 1 0 0 0 0 0 0 0 0 0 0 0 0 0 0 0 0 0 0 0 0 0 0 0 0 0 0 0 0 0 0 1 1 0 0 0 0 0 0 0 0 0
0 0 0 0 0 0 0 0 0 0 0 0 0 0 0 0 0 0 0 0 0 0 0 0 0 0 0 0 0 0 0 0 1 1 0 0 0 0 0 0 0 0 0
0 0 0 0 0 0 0 0 0 0 0 0 0 0 0 0 0 0 0 0 0 0 0 0 0 0 0 0 0 0 0 0 1 1 0 0 0 0 0 0 0 0 0
0 0 0 0 0 0 0 0 0 0 0 0 0 0 0 0 0 0 0 0 0 0 0 0 0 0 0 0 0 0 0 0 0 0 0 0 0 0 0 0 0 0 0
0 0 0 0 0 0 0 0 0 0 0 0 0 0 0 0 0 0 0 0 0 0 0 0 0 0 0 0 0 0 0 0 0 0 0 0 0 0 0 0 0 0 0
0 0 0 0 0 0 0 0 0 0 0 0 0 0 0 0 0 0 0 0 0 0 0 0 0 0 0 0 0 0 0 0 0 0 0 0 0 0 0 0 0 0 0
0 0 0 0 0 0 0 0 0 0 0 0 0 0 0 0 0 0 0 0 0 0 0 0 0 0 0 0 0 0 0 0 0 0 0 0 0 0 0 0 0 0 0
0 0 0 0 0 0 0 0 0 0 0 0 0 0 0 0 0 0 0 0 0 0 0 0 0 0 0 0 0 0 0 0 0 0 0 0 0 0 0 0 0 0 0
0 0 0 0 0 0 0 0 0 0 0 0 0 0 0 0 0 0 0 0 0 0 0 0 0 0 0 0 0 0 0 0 0 0 0 0 0 0 0 0 0 0 0
0 0 0 0 0 0 0 0 0 0 0 0 0 0 0 0 0 0 0 0 0 0 0 0 0 0 0 0 0 0 0 0 0 0 0 0 0 0 0 0 0 0 0
0 0 0 0 0 0 0 0 0 0 0 0 0 0 0 0 0 0 0 0 0 0 0 0 0 0 0 0 0 0 0 0 0 0 0 0 0 0 0 0 0 0 0
0 0 0 0 0 0 0 0 0 0 0 0 0 0 0 0 0 0 0 0 0 0 0 0 0 0 0 0 0 0 0 0 0 0 0 0 0 0 0 0 0 0 0
0 0 0 0 0 0 0 0 0 0 0 0 0 0 0 0 0 0 0 0 0 0 0 0 0 0 0 0 0 0 0 0 0 0 0 0 0 0 0 0 0 0 0
0 0 0 0 0 0 0 0 0 0 0 0 0 0 0 0 0 0 0 0 0 0 0 0 0 0 0 0 0 0 0 0 0 0 0 0 0 0 0 0 0 0 0
0 0 0 0 0 0 0 0 0 0 0 0 0 0 0 0 0 0 0 0 0 0 0 0 0 0 0 0 0 0 0 0 0 0 0 0 0 0 0 0 0 0 0
0 0 0 0 0 0 0 0 0 0 0 0 0 0 0 0 0 0 0 0 0 0 0 0 0 0 0 0 0 0 0 0 0 0 0 0 0 0 0 0 0 0 0
Wind_Speed
4 4 3 3 3 2 2 2 2 1 1 0 1 3 4 5 6 4 4 10 9 8 9 9 8 6 5 4 3 2 2 2 3 4 4 5 5 5 6 7 7 8 8
4 4 4 3 3 2 2 1 1 2 2 2 4 4 5 5 5 5 3 5 8 8 8 8 7 6 5 4 3 2 1 0 1 1 2 3 3 4 5 5 6 7 7
5 5 4 4 3 3 3 3 3 3 3 4 4 5 4 4 4 4 3 2 3 6 8 7 7 6 5 5 4 3 3 3 3 3 3 4 4 4 4 4 4 5 6
6 5 4 4 3 3 3 4 3 3 3 3 3 3 3 3 4 3 3 3 2 3 4 7 7 6 6 5 4 3 3 3 3 3 3 4 4 5 5 5 6 6 7
6 5 4 4 4 4 3 3 3 3 3 3 3 3 2 2 2 3 2 2 2 3 2 4 7 7 6 5 4 4 3 2 1 1 2 3 4 5 6 7 7 8 8
6 6 5 5 5 4 3 3 4 3 3 2 2 2 1 1 1 1 1 1 1 2 2 2 2 4 6 6 6 5 4 3 2 1 1 1 2 4 5 7 8 9 10
6 6 5 5 4 4 3 4 3 4 3 1 2 2 2 2 2 1 1 1 1 1 1 2 2 2 2 7 8 8 7 6 5 4 3 1 1 2 4 6 8 10 11
6 5 6 4 4 4 5 4 3 3 2 2 2 2 1 3 3 2 2 1 1 1 1 1 2 3 3 2 5 10 9 8 8 7 6 4 3 3 4 6 8 10 12
7 7 6 5 5 4 4 3 3 4 2 2 3 2 2 2 2 3 2 2 2 2 2 2 2 2 3 3 4 8 11 10 10 9 8 7 6 5 6 8 10 12 14
8 7 7 6 6 5 5 4 4 3 3 2 2 3 2 2 1 2 3 3 3 3 3 3 3 3 3 2 3 6 8 8 10 9 8 7 7 7 9 11 12 14 16
8 8 7 7 6 5 6 6 5 5 3 3 2 2 2 2 2 1 2 4 4 3 3 3 3 3 3 2 2 3 4 4 5 6 6 7 8 10 12 13 15 16 17
6 8 8 7 7 6 6 6 6 7 5 5 4 3 2 2 1 1 1 2 3 3 3 3 3 3 3 3 4 6 5 3 3 4 5 8 10 13 15 16 18 19 19
5 6 7 7 6 6 6 6 6 6 5 5 4 3 2 2 1 1 1 1 2 3 3 3 3 4 4 4 4 8 6 5 5 6 8 10 13 15 17 19 20 20 20
5 6 7 7 7 7 7 6 5 5 5 5 5 3 2 2 2 1 1 0 2 3 3 4 3 3 3 3 4 6 4 9 10 10 11 13 16 18 19 20 20 21 21
6 7 7 7 7 6 6 6 5 4 5 4 4 4 3 2 2 1 1 1 1 1 3 4 3 4 4 3 5 3 4 10 13 13 13 15 17 18 19 20 20 21 21
6 6 6 6 6 7 6 6 5 5 6 4 3 4 3 2 2 2 1 1 2 2 3 3 3 4 5 6 10 6 6 15 15 15 15 15 16 17 19 21 21 21 21
6 6 6 7 8 8 7 7 6 6 6 5 4 4 3 2 2 2 1 1 0 1 3 4 3 4 5 6 8 6 7 6 7 15 17 17 17 17 19 20 20 20 21
6 7 8 9 9 9 7 7 7 7 6 5 4 4 4 3 3 2 2 2 2 2 2 4 4 4 5 7 7 7 8 7 6 13 17 18 18 18 17 16 17 17 18
8 8 9 9 8 7 7 6 5 5 5 4 4 4 4 4 4 3 3 3 3 3 2 3 5 4 4 5 6 7 8 7 8 10 13 16 18 18 17 17 17 16 16
8 8 8 7 7 6 6 5 5 5 5 5 5 4 4 4 4 4 4 4 3 4 4 4 5 5 5 6 4 5 7 5 7 9 12 13 15 17 18 18 18 18 17
8 6 6 5 5 4 4 4 4 5 5 6 6 5 5 7 6 3 2 3 3 3 4 5 6 6 6 5 5 5 7 7 7 6 5 6 7 7 9 14 16 18 17
5 5 5 4 3 3 4 6 5 4 5 5 6 6 6 5 7 7 8 9 8 6 6 5 6 7 8 7 6 6 6 6 5 3 3 7 6 7 7 6 13 16 16
4 3 2 2 2 1 3 6 8 4 5 5 5 5 5 5 5 4 8 12 11 14 12 7 7 9 8 8 7 8 7 6 7 5 4 7 5 7 7 8 14 14 14
2 1 1 1 1 2 2 4 7 5 4 5 6 6 5 5 4 5 6 8 8 9 10 7 7 9 9 8 8 7 7 6 6 6 4 5 5 5 7 6 11 13 13
1 1 1 2 2 3 3 3 5 4 4 6 7 6 6 5 8 9 7 8 10 10 10 11 11 12 14 14 9 4 4 5 6 5 3 3 4 5 6 6 7 11 12
1 1 1 1 2 2 4 4 4 2 4 5 6 7 9 9 12 12 7 7 9 10 9 10 10 9 8 8 8 4 4 5 5 4 3 3 3 4 5 4 4 5 6
Wind_Direction
191 184 182 183 193 203 209 221 245 263 283 348 73 105 110 119 128 128 148 159 157 159 157 157 158 159 159 159 162 173 205 236 246 246 249 254 256 258 260 259 254 249 244
179 173 172 174 185 196 194 170 148 116 83 79 80 91 105 107 113 117 118 140 145 145 147 150 153 153 149 140 133 133 127 114 354 316 293 283 278 273 273 275 274 268 261
166 158 155 157 161 147 133 112 97 88 89 87 76 72 81 90 108 116 117 115 135 144 144 143 143 143 142 140 133 118 96 72 51 34 26 22 16 8 353 332 317 303 290
154 144 143 143 135 122 117 114 104 91 84 88 87 76 76 87 102 120 130 142 142 139 145 149 152 153 155 154 149 141 118 92 61 38 30 30 29 21 12 4 351 339 326
140 128 126 123 117 106 105 115 93 99 97 95 105 96 89 96 107 127 142 157 157 151 156 168 172 174 174 171 168 165 153 139 113 36 21 24 22 19 11 360 350 342 335
121 114 111 108 107 103 95 95 96 78 84 92 89 78 66 80 90 107 140 129 142 162 172 181 185 195 197 194 194 195 195 198 208 234 302 334 353 5 1 353 347 337 329
106 109 111 104 103 102 103 105 100 88 60 39 75 36 8 20 29 21 11 54 65 104 169 190 206 226 232 223 217 215 218 219 223 229 240 264 341 350 341 337 333 328 323
96 98 101 103 100 102 98 92 101 103 68 32 95 92 352 341 354 4 360 6 2 2 309 224 217 225 231 229 237 233 231 230 233 237 240 237 247 281 309 317 318 317 315
89 91 93 93 93 100 104 94 97 115 118 50 47 125 156 235 310 331 356 15 355 346 323 305 283 267 247 229 237 244 240 234 240 245 245 245 253 268 286 297 302 303 303
78 82 85 87 85 84 87 82 77 90 109 99 49 43 77 128 141 319 332 350 357 359 342 336 331 316 292 260 250 248 247 237 241 249 255 259 265 275 284 291 295 296 296
70 76 82 84 84 81 79 74 73 71 76 92 87 67 58 50 64 120 308 331 342 340 342 339 338 335 332 322 296 291 280 261 252 256 264 270 276 281 286 288 289 290 289
68 67 76 76 78 80 76 73 72 72 71 73 67 63 72 72 45 74 270 306 313 306 322 345 4 355 354 358 2 15 14 0 315 289 281 280 282 284 287 288 288 287 286
76 72 74 74 72 72 72 71 70 66 65 71 70 67 64 64 64 94 102 305 304 303 327 342 3 8 11 9 6 15 0 341 313 290 279 279 281 283 285 286 286 285 284
80 80 77 74 70 67 66 65 66 64 64 64 61 60 56 40 51 80 125 133 337 323 323 311 329 5 360 346 339 355 337 325 308 289 278 275 278 280 283 284 283 282 280
89 81 80 75 69 68 66 64 59 52 54 51 49 49 45 23 31 49 92 134 143 297 295 299 313 318 324 315 313 309 297 300 302 294 286 280 279 280 282 283 282 280 277
84 83 78 77 70 62 60 63 57 49 53 42 45 45 31 12 16 17 33 77 153 181 251 276 273 286 305 318 317 310 290 305 304 299 293 287 282 282 283 282 281 280 278
77 78 77 73 68 61 58 60 56 51 50 38 30 34 17 6 6 353 357 352 278 188 242 272 268 282 296 303 309 302 297 289 288 298 297 292 288 286 286 285 283 282 280
66 69 72 73 71 65 57 56 50 42 36 25 10 8 347 343 340 321 312 302 288 263 236 281 286 291 291 293 292 297 300 300 291 294 292 291 290 290 289 286 284 281 278
65 71 76 75 72 66 58 50 44 34 21 5 349 342 326 327 312 297 290 286 282 289 266 272 286 285 286 291 298 295 292 290 292 294 293 291 291 293 291 290 286 281 276
74 77 78 78 75 67 56 39 28 18 0 346 336 328 319 305 286 284 284 282 282 292 291 289 288 290 285 285 284 290 297 288 289 294 291 290 291 294 292 291 289 286 281
80 84 86 80 74 67 51 36 11 2 347 336 330 325 317 320 331 318 303 288 287 285 290 289 289 291 291 296 293 282 290 293 288 277 279 285 287 283 285 286 287 286 284
75 81 86 90 78 65 41 27 12 349 336 331 325 322 316 321 335 343 343 331 317 299 287 280 285 287 289 287 285 285 288 296 293 275 277 288 282 279 278 270 277 281 282
75 83 91 103 101 18 15 8 4 360 341 333 324 318 322 328 337 329 322 320 312 303 293 281 278 280 283 285 284 287 282 280 281 281 286 286 283 281 280 282 284 284 286
74 97 144 178 189 270 322 349 355 358 341 331 323 317 315 311 307 310 307 306 299 294 288 282 263 271 278 279 274 276 278 280 275 273 258 274 281 279 286 284 285 286 287
352 278 237 217 224 266 286 322 354 340 330 325 321 323 320 307 299 309 308 303 303 300 297 287 281 283 286 288 286 280 286 290 296 292 263 251 273 284 285 283 285 288 290
282 293 289 264 243 257 277 297 338 333 325 320 318 315 316 311 308 310 301 291 295 297 304 310 308 307 304 303 306 283 274 289 295 292 273 269 272 289 288 274 274 282 287